Location: Dubovice
(49.0357°N, 14.0374°E)
Time: 18:28:30
(UTC+00:00)

Daily predictions for brighter satellites

Satellite Brightness Start Highest point End
(mag) Time Altitude Azimuth Time Altitude Azimuth Time Altitude Azimuth
BREEZE-M DEB (TANK) 3.5 18:55:37 10° SW 18:58:51 46° SE 19:08:39 10° ENE
COSMOS 2455 4.1 19:04:46 10° SSE 19:09:00 20° ESE 19:13:16 10° ENE
GEOS 3 Rocket 3.7 19:05:15 10° NE 19:10:21 52° SE 19:15:20 10° SSW
ATLAS 2AS CENTAUR R/B 4.4 19:07:21 10° WSW 19:14:48 43° NNW 19:21:59 10° NE
Meteor 2-3 Rocket 3.8 19:09:20 10° S 19:15:00 70° E 19:20:45 10° NNE
SAR-Lupe-1 4.0 19:11:54 10° NNE 19:15:30 86° ESE 19:19:04 10° SSW
Cosmos 2082 Rocket 4.1 19:10:32 10° WSW 19:15:44 36° NW 19:20:59 10° NNE
Cosmos 220 Rocket 4.0 19:11:59 10° NNW 19:16:22 80° ENE 19:20:47 10° SSE
Cosmos 292 Rocket 4.5 19:12:11 10° N 19:16:42 39° ENE 19:21:12 10° SE
Cosmos 2360 Rocket 2.4 19:11:07 10° NNW 19:16:45 64° ENE 19:22:20 10° SE
NOSS 2-1 (C) 3.1 19:14:17 10° SSW 19:17:26 43° SE 19:20:39 10° NE
SAR-Lupe-4 3.5 19:14:09 10° NNE 19:17:46 80° ESE 19:21:21 10° SSW
Ariane Rocket 3.1 19:13:36 10° SSE 19:18:40 88° WSW 19:23:46 10° NNW
Terra 3.7 19:16:52 10° E 19:19:42 16° ENE 19:22:32 10° NNE
Cosmos 1328 Rocket 4.2 19:15:49 10° N 19:20:02 40° ENE 19:24:12 10° SE
Cosmos 2098 Rocket 3.9 19:16:47 10° SSW 19:20:18 50° WNW 19:24:45 10° N
Helios 1A Rocket 4.1 19:17:35 10° S 19:21:29 44° W 19:25:26 10° NNW
Cosmos 1174 3.4 19:21:05 10° NNW 19:24:03 54° NE 19:26:57 11° SE
NOSS 2-1 (D) 2.9 19:22:00 10° SSW 19:25:13 53° SE 19:28:31 10° NE
SPOT 3 Rocket 3.7 19:20:15 10° SSE 19:25:23 61° ENE 19:30:32 10° N
Meteor 2-19 Rocket 4.5 19:20:23 10° S 19:26:27 89° W 19:32:33 10° N
Cosmos 1766 Rocket 3.9 19:22:24 10° SSE 19:26:34 44° E 19:30:43 10° NNE
Cosmos 2151 3.5 19:24:25 10° SSW 19:28:38 64° WNW 19:32:56 10° N
Cosmos 1624 Rocket 4.0 19:23:36 10° NNW 19:28:50 76° ENE 19:34:04 10° SSE
Gblst 52 Del rocket 4.5 19:25:11 10° WNW 19:31:00 83° NNE 19:37:34 10° ESE
Cosmos 2084 3.4 19:27:14 10° SW 19:31:19 85° NW 19:35:31 10° NE
Cosmos 1553 Rocket 4.2 19:25:44 10° N 19:31:40 52° ENE 19:37:39 10° SSE
Resurs 01 Rocket 1.6 19:28:51 10° SSE 19:33:18 86° ENE 19:37:47 10° NNW
Cosmos 1420 Rocket 4.3 19:28:36 10° NNW 19:33:53 59° ENE 19:38:52 11° SE
Cosmos 1812 2.9 19:36:42 10° N 19:40:30 55° ENE 19:44:02 12° SSE
Cosmos 1933 4.5 19:36:49 10° NNW 19:40:41 44° W 19:44:30 10° SSW
Cosmos 1782 3.1 19:38:41 10° NNW 19:42:41 71° W 19:46:39 10° S
Landsat 7 3.9 19:38:59 10° SSE 19:43:45 84° WSW 19:48:32 10° NNW
ERS-1 Rocket 3.9 19:40:14 12° SE 19:44:16 33° ENE 19:48:45 10° N
Cosmos 1862 3.8 19:40:54 10° SSE 19:44:37 40° E 19:48:20 10° NNE
Cosmos 1833 4.3 19:42:41 10° S 19:48:19 55° ESE 19:53:57 10° NE
SL-27 R/B 2.4 19:45:35 10° SSW 19:49:09 69° ESE 19:52:44 10° NNE
Cosmos 2333 Rocket 2.4 19:46:19 10° NNW 19:51:57 61° ENE 19:56:33 15° SE
BREEZE-M DEB (TANK) 3.6 19:50:36 10° W 19:53:30 32° SSW 19:58:29 14° SE
Cosmos 2322 Rocket 3.1 19:48:28 10° NW 19:53:49 45° WSW 19:59:06 10° S
Cosmos 2237 Rocket 3.9 19:49:26 10° N 19:53:52 23° NE 19:58:19 10° E
Cosmos 2322 3.9 19:49:19 10° NNW 19:55:00 61° ENE 19:59:33 16° SE
SPOT 5 3.4 19:52:44 16° SE 19:55:51 37° ENE 20:00:02 10° N
USA 234 4.3 19:50:04 10° ENE 19:56:14 45° N 20:02:23 10° WNW
ARIANE 5 R/B 3.1 19:54:19 16° SE 19:57:36 45° ENE 20:01:50 10° N
Cosmos 1452 Rocket 3.9 19:55:11 10° NNW 20:00:20 51° ENE 20:04:09 18° SE
BREEZE-M R/B 3.8 19:57:25 10° SSW 20:01:12 22° SSE 20:02:47 17° ESE
Cosmos 1500 Rocket 4.4 20:03:07 18° SE 20:05:42 33° E 20:09:43 10° NNE
Cosmos 2219 Rocket 2.3 20:00:32 10° NNW 20:06:07 63° ENE 20:10:11 19° SE
S3M 4.1 19:59:54 10° N 20:06:17 65° ENE 20:11:31 16° SSE
Cosmos 2056 Rocket 4.2 20:05:25 10° NNW 20:10:35 52° WSW 20:15:29 11° S
ATLAS 5 CENTAUR R/B 2.4 20:07:05 10° NW 20:12:27 66° NE 20:17:08 19° SE
Meteor 1-27 Rocket 4.0 20:09:27 10° N 20:15:03 55° ENE 20:18:58 20° SE
Meteor 2-14 Rocket 4.4 20:11:18 10° S 20:17:27 88° E 20:23:38 10° N
Spot 2 Rocket 3.5 20:14:03 17° SSE 20:18:04 86° ENE 20:23:12 10° NNW
SPOT 1/Viking Rocket 3.9 20:14:27 11° S 20:19:23 64° WSW 20:24:36 10° NNW
USA 245 3.5 20:16:54 16° S 20:20:13 68° WSW 20:23:41 10° NNW
Cosmos 1408 Rocket 3.4 20:17:00 11° S 20:21:07 82° E 20:25:27 10° NNE
NOSS 2-1 (E) 4.0 20:20:23 10° WSW 20:23:32 46° NW 20:26:59 10° NNE
Cosmos 1655 Rocket 4.1 20:19:07 12° S 20:24:54 65° E 20:31:16 10° NNE
CZ-2C R/B 3.7 20:20:58 10° NNE 20:25:29 84° WNW 20:29:55 10° SSW
SL-16 R/B 4.3 20:22:16 10° N 20:25:58 17° NE 20:29:41 10° ENE
SL-16 R/B 4.3 20:22:51 10° NW 20:26:53 20° W 20:30:54 10° SW
Cosmos 1743 Rocket 3.7 20:25:40 23° SSE 20:28:14 53° E 20:32:32 10° NNE
GP-B 4.0 20:24:20 10° N 20:28:36 48° W 20:32:52 10° SSW
CARTOSAT-1 3.7 20:29:08 20° S 20:32:06 69° WSW 20:36:26 10° NNW
NOSS 3-1 (C) 4.4 20:27:20 10° NW 20:34:41 62° SW 20:40:55 20° SSE
Lacrosse 5 2.6 20:33:37 20° S 20:36:04 31° SE 20:40:30 10° ENE
CZ-4C R/B 4.1 20:41:27 10° NW 20:47:23 33° NNE 20:54:20 10° E
COSMOS 2487 2.3 20:45:41 23° SSW 20:47:42 81° WNW 20:51:06 10° NNE
Cosmos 1515 Rocket 4.4 20:44:32 10° NNW 20:48:46 46° W 20:51:44 18° SSW
Cosmos 468 4.5 20:47:12 20° S 20:50:45 64° ESE 20:55:57 10° NNE
COSMOS 2428 2.7 20:45:05 10° NNW 20:50:48 78° WSW 20:53:52 28° SSE
CZ-4B DEB 4.3 20:50:28 50° ESE 20:50:55 57° ENE 20:54:01 10° N
USA 229 DEB 4.0 20:45:40 10° NW 20:52:57 71° SW 20:57:36 26° SSE
USA 229 4.0 20:45:46 10° NW 20:53:03 72° SW 20:57:42 26° SSE
COSMOS 2455 2.9 20:48:13 10° SW 20:54:14 83° NW 21:00:18 10° NE
IRIDIUM 103 4.4 20:49:35 10° N 20:54:48 66° E 20:57:11 32° SSE
Terra 1.8 20:54:30 31° S 20:56:50 84° WSW 21:01:38 10° NNW
Cosmos 2360 Rocket 4.0 20:55:53 10° NW 21:00:16 24° WSW 21:04:37 10° SSW
Cosmos 2084 Rocket 3.3 20:56:50 10° NW 21:01:02 88° WSW 21:02:26 43° SE
Cosmos 1048 Rocket 3.8 20:59:48 19° SSW 21:03:31 83° ESE 21:08:41 10° NNE
Cosmos 972 Rocket 4.0 21:01:59 14° SSW 21:06:24 80° WNW 21:11:21 10° NNE
Cosmos 2219 4.3 21:06:24 25° ESE 21:06:53 25° ESE 21:11:30 10° NE
USA 102 3.7 21:08:33 58° NNW 21:08:33 58° NNW 21:16:03 10° NNW
USA 102 3.7 21:08:33 58° NNW 21:08:33 58° NNW 21:56:34 10° NW
Resurs 01 Rocket 4.3 21:08:45 10° WSW 21:10:26 12° W 21:12:06 10° WNW
Cosmos 489 Rocket 4.4 21:06:25 19° SSW 21:11:10 78° ESE 21:17:34 10° NNE
IRIDIUM 106 4.3 21:07:49 10° N 21:13:05 89° W 21:15:23 35° S
NOSS 3-1 (A) 4.4 21:06:09 10° NW 21:13:30 59° WSW 21:18:16 28° S
Cosmos 2266 Rocket 4.3 21:09:42 14° SSW 21:15:03 65° WNW 21:21:20 10° N
Cosmos 1302 Rocket 4.3 21:10:13 10° NNW 21:15:22 54° ENE 21:17:19 35° ESE
Cosmos 1707 Rocket 3.6 21:11:15 10° N 21:15:37 64° ENE 21:16:41 47° SE
TSX-5 4.2 21:15:29 46° ESE 21:15:44 46° ESE 21:20:27 10° NE
H-2A R/B 3.4 21:11:56 10° NNE 21:16:08 66° ESE 21:17:03 50° SSE
Meteor 1-19 Rocket 4.2 21:10:57 10° N 21:16:29 65° ENE 21:18:30 38° SE
Okean 1 3.5 21:12:47 10° N 21:16:45 56° ENE 21:17:20 50° ESE
Cosmos 1980 3.7 21:11:35 10° NNW 21:17:16 73° ENE 21:19:35 37° SE
NOSS 2-2 (D) 4.4 21:14:00 10° NW 21:19:06 74° NE 21:22:28 31° SE
ERS-1 Rocket 4.0 21:20:14 21° SSW 21:23:00 38° W 21:27:41 10° NNW
Cosmos 1500 3.8 21:24:25 41° E 21:24:25 41° E 21:27:54 10° NNE
Cosmos 2228 Rocket 3.8 21:20:55 10° NNW 21:25:12 48° W 21:26:53 31° SSW
Cosmos 1269 Rocket 4.4 21:30:11 41° SE 21:30:57 43° ESE 21:35:57 10° NE
Cosmos 2297 Rocket 2.5 21:31:26 41° SE 21:32:32 46° ESE 21:37:56 10° NE
Cosmos 1805 Rocket 4.0 21:31:35 31° SW 21:33:29 58° WNW 21:37:51 10° N
SPOT 5 4.3 21:31:59 19° SW 21:34:03 26° W 21:37:53 10° NW
Cosmos 2315 Rocket 4.5 21:27:56 10° NNW 21:34:07 57° W 21:37:37 26° SSW
BREEZE-M DEB (TANK) 3.1 21:31:06 10° WNW 21:34:36 34° WSW 21:34:36 34° WSW
Cosmos 972 4.5 21:32:40 31° SSW 21:35:20 86° WNW 21:40:23 10° NNE
NOSS 0 Rocket 4.1 21:29:18 10° NW 21:35:29 64° WSW 21:37:53 37° S
Cosmos 2333 Rocket 3.8 21:31:16 10° NW 21:35:48 25° WSW 21:38:33 18° SW
USA 234 3.9 21:32:18 10° E 21:38:37 53° NNE 21:44:56 10° WNW
Cosmos 2237 Rocket 2.1 21:32:58 10° NNW 21:38:42 86° WSW 21:40:34 45° SSE
Meteor 1-20 Rocket 4.4 21:40:21 30° SSW 21:43:16 72° WNW 21:49:03 10° N
Cosmos 2227 Rocket 2.5 21:44:49 42° SE 21:45:32 44° ESE 21:50:53 10° NE
ALOS 2 3.4 21:45:45 35° E 21:46:30 37° ENE 21:50:34 10° N
NOSS 2-2 (E) 4.5 21:41:19 10° NW 21:46:40 70° SW 21:49:13 40° SSE
Cosmos 2219 Rocket 3.8 21:45:14 10° NW 21:49:36 24° WSW 21:51:54 18° SW
Cosmos 1745 Rocket 4.3 21:50:35 40° SE 21:52:23 53° E 21:58:31 10° NNE
Meteor 1-14 Rocket 4.3 21:51:39 48° SSE 21:53:02 63° E 21:58:41 10° NNE
Sich 1 3.9 21:53:28 31° SW 21:54:59 44° WNW 21:59:08 10° N
ATLAS 5 CENTAUR R/B 3.5 21:51:59 10° WNW 21:56:58 31° WSW 21:58:38 27° SW
BREEZE-M DEB (TANK) 4.3 21:46:30 10° WSW 21:59:43 56° S 22:02:12 29° ESE
Nadezhda 1 Rocket 4.0 21:58:09 10° N 22:04:36 78° E 22:06:40 46° SSE
Cosmos 44 4.2 22:05:54 10° NNW 22:11:03 47° NE 22:13:02 31° E
SL-16 R/B 2.4 22:05:34 10° NNW 22:11:14 66° ENE 22:12:56 44° ESE
Cosmos 1633 Rocket 3.3 22:10:51 54° WSW 22:11:31 62° WNW 22:15:51 10° N
Cosmos 1470 Rocket 3.3 22:14:08 82° SE 22:14:16 84° E 22:18:37 10° N
Cosmos 1666 2.8 22:15:50 71° NNE 22:15:50 71° NNE 22:19:19 10° N
Lacrosse 5 2.1 22:13:41 10° WSW 22:18:45 70° NNW 22:23:50 10° NE
Cosmos 1933 Rocket 3.6 22:20:14 64° E 22:20:16 64° E 22:24:41 10° NNE
Timation 1 Rocket 4.3 22:21:27 53° S 22:22:42 67° ESE 22:28:40 10° NE
Cosmos 1340 Rocket 2.9 22:28:39 68° NE 22:28:39 68° NE 22:32:12 10° NNE
Cosmos 2251 Rocket 4.0 22:34:43 43° ESE 22:34:54 43° ESE 22:39:55 10° NE
Terra 4.3 22:33:48 10° WSW 22:35:19 11° W 22:36:52 10° WNW
CZ-4C R/B 3.0 22:29:50 10° NW 22:36:55 81° NE 22:41:11 32° SE
Meteor 2-4 Rocket 4.3 22:33:38 10° NNW 22:39:21 51° W 22:40:46 42° SW
CZ-3B R/B 3.6 22:35:12 10° WNW 22:39:48 26° WSW 22:39:48 26° WSW
Timation 2 Rocket 3.8 22:39:27 52° SSW 22:41:01 82° ESE 22:47:16 10° NNE
Cosmos 1992 Rocket 3.9 22:37:28 10° NNW 22:42:41 69° WSW 22:43:15 63° SSW
ATLAS CENTAUR R/B 3.5 22:44:53 16° ENE 22:44:53 16° ENE 22:46:04 10° ENE
Cosmos 1544 4.1 22:44:14 39° NE 22:44:14 39° NE 22:46:49 10° NNE
Cosmos 2242 Rocket 3.5 22:40:05 10° NNW 22:44:32 80° W 22:44:34 80° WSW
USA 267 3.2 22:40:00 10° ENE 22:46:28 60° SE 22:48:10 47° SSW
Cosmos 2219 3.6 22:48:17 36° SW 22:50:36 62° WNW 22:56:21 10° NNE
Cosmos 1066 Rocket 4.2 22:48:19 10° NNW 22:54:14 88° W 22:55:26 59° S
ATLAS 2AS CENTAUR R/B 4.4 22:54:17 10° NW 23:01:01 33° NNE 23:07:19 10° E
Cosmos 1703 Rocket 3.9 22:57:09 10° NNW 23:01:20 52° W 23:01:20 52° W
Cosmos 2082 3.6 23:01:11 59° SSW 23:02:20 85° ESE 23:08:06 10° NNE
NOSS 3-3 (A) 4.3 23:02:53 43° SE 23:03:15 44° ESE 23:09:20 10° NE
NOSS 3-3 (C) 4.3 23:03:01 43° SE 23:03:21 43° ESE 23:09:25 10° NE
Cosmos 1378 4.3 23:01:11 10° NNW 23:03:58 37° WNW 23:03:58 37° WNW
Cosmos 909 Rocket 4.4 23:02:47 33° SW 23:06:11 77° NW 23:14:21 10° NE
Meteor 1-11 Rocket 3.6 23:05:19 62° SSW 23:06:19 86° WNW 23:11:54 10° N
Cosmos 1733 Rocket 4.2 23:09:45 33° E 23:09:46 33° E 23:13:45 10° NNE
Okean 1-7 3.7 23:05:44 10° NNW 23:09:33 42° W 23:09:33 42° W
Cosmos 2181 Rocket 3.9 23:04:52 10° N 23:11:13 89° W 23:12:46 54° S
Cosmos 1140 Rocket 4.1 23:16:10 40° ESE 23:16:28 40° ESE 23:21:19 10° NE
Cosmos 2297 Rocket 3.4 23:13:12 19° WSW 23:16:43 36° NW 23:21:58 10° NNE
Nimbus 7 Rocket 4.4 23:11:16 10° NNE 23:17:17 78° WNW 23:18:53 51° SW
Meteor 1-23 Rocket 4.2 23:14:41 10° NNW 23:20:28 82° W 23:21:35 59° S
SL-16 R/B 4.2 23:15:35 10° ESE 23:20:37 27° ENE 23:25:42 10° N
Cosmos 2221 Rocket 3.8 23:16:48 10° N 23:21:22 62° ENE 23:21:41 60° E
USA 234 3.1 23:18:04 32° SE 23:21:27 81° SW 23:28:02 10° WNW
Cosmos 2237 Rocket 4.1 23:18:46 10° WNW 23:21:53 15° W 23:22:23 15° WSW
ALOS 2 4.0 23:23:09 26° W 23:23:09 26° W 23:26:39 10° NW
Cosmos 614 Rocket 3.9 23:23:41 66° SW 23:24:26 85° WNW 23:29:43 10° NNE
Cosmos 1461 3.1 23:27:19 65° W 23:27:39 68° NW 23:32:03 10° NE
Cosmos 1709 Rocket 4.4 23:26:19 40° SW 23:28:21 56° WNW 23:34:39 10° N
Cosmos 2227 Rocket 3.4 23:26:37 22° WSW 23:29:41 38° NW 23:34:58 10° NNE
SL-24 R/B - RUBIN 2 3.6 23:27:19 10° NW 23:32:26 88° SW 23:32:45 78° SSE
Nadezhda 3 Rocket 4.5 23:27:25 10° N 23:33:40 55° ENE 23:36:10 35° SE
Cosmos 2263 Rocket 2.3 23:33:28 54° SSE 23:34:17 60° ESE 23:39:55 10° NE
Cosmos 2344 3.8 23:34:40 40° SSE 23:36:37 49° ESE 23:44:00 10° NE
Cosmos 1603 3.6 23:34:16 10° NNW 23:39:56 82° ENE 23:41:31 49° SE
Cosmos 1536 3.9 23:40:44 36° WNW 23:40:44 36° WNW 23:44:28 10° N
PSLV R/B 3.7 23:37:22 10° N 23:42:08 75° WNW 23:42:34 69° WSW
Okean 2 4.0 23:38:21 10° N 23:42:25 47° ENE 23:42:44 46° E
Cosmos 1842 3.4 23:40:44 10° N 23:44:12 69° NNE 23:44:12 69° NNE
Cosmos 1869 Rocket 4.4 23:47:06 38° W 23:47:27 39° WNW 23:51:39 10° N
ASTEX 1 3.3 23:46:47 64° SSE 23:47:30 79° E 23:52:28 10° N
ARGOS Delta rocket 3.8 23:44:01 10° NNE 23:48:29 58° E 23:48:43 57° ESE
Thor Agena Rocket 3.7 23:46:37 10° N 23:51:36 61° WNW 23:52:34 50° WSW
Meteor 2-9 Rocket 4.1 23:50:41 55° SSE 23:51:42 70° E 23:57:10 10° NNE
Cosmos 44 4.3 23:47:29 10° NW 23:51:25 33° W 23:51:25 33° W
YAOGAN 11 4.4 23:52:25 52° ESE 23:53:11 61° ENE 23:57:36 10° N
SL-16 R/B 3.6 23:50:30 10° NW 23:54:47 23° W 23:54:47 23° W
